Location: Dresden
(51.0500°N, 13.7500°E)
Time: 23:25:40
(UTC+00:00)

ISS - Visible Passes

Search period start: 28 November 2023 00:00
Search period end: 08 December 2023 00:00
Orbit: 416 x 418 km, 51.6° (Epoch: 28 November)

Date Brightness Start Highest point End Pass type
(mag) Time Alt. Az. Time Alt. Az. Time Alt. Az.
28 Nov -3.8 16:29:11 10° W 16:32:33 80° N 16:34:22 25° E visible
28 Nov -1.1 18:05:59 10° W 18:07:17 21° W 18:07:17 21° W visible
29 Nov -3.8 15:40:52 10° W 15:44:14 78° N 15:47:37 10° E visible
29 Nov -3.6 17:17:40 10° W 17:21:00 65° SSW 17:21:00 65° SSW visible
30 Nov -3.7 16:29:19 10° W 16:32:41 81° SSW 16:34:46 21° ESE visible
30 Nov -1.0 18:06:18 10° W 18:07:42 19° WSW 18:07:42 19° WSW visible
01 Dec -3.8 15:40:56 10° W 15:44:18 86° N 15:47:40 10° E visible
01 Dec -2.5 17:17:46 10° W 17:20:54 37° SSW 17:21:32 33° S visible
02 Dec -3.0 16:29:17 10° W 16:32:34 51° SSW 16:35:29 12° SE visible
02 Dec -0.7 18:07:04 10° WSW 18:08:24 13° SW 18:08:24 13° SW visible
03 Dec -3.4 15:40:48 10° W 15:44:08 67° SSW 15:47:29 10° ESE visible
03 Dec -1.2 17:18:00 10° W 17:20:28 19° SW 17:22:32 12° S visible
04 Dec -1.7 16:29:13 10° W 16:32:08 27° SSW 16:35:01 10° SSE visible
05 Dec -2.2 15:40:32 10° W 15:43:41 38° SSW 15:46:50 10° SE visible
06 Dec -0.6 16:29:31 10° WSW 16:31:21 14° SW 16:33:10 10° S visible
07 Dec -0.8 15:40:22 10° W 15:42:56 20° SW 15:45:28 10° SSE visible
